Grant, AL (35747)

10:22 AM CST on February 12, 2016 (GMT -0600)
PlaygroundShores | | Change Station
CLOSE
Current Station
Personal Weather Station
Location: Guntersville, AL
Elevation: 610 ft
Nearby Weather Stations

Elev 610 ft 34.41 °N, 86.26 °W | Updated 2 minutes ago

Clear
Clear
44.5 °F
Feels Like 44 °F
N
2.0
Wind Variable Wind from ESE
Gusts 3.0 mph

Today
High -- | Low -- °F
--% Chance of Precip.
Yesterday
High -- | Low -- °F
Precip. -- in
Pressure 30.12 in
Visibility 10.0 miles
Clouds Clear
Windchill 44 °F
Dew Point 33 °F
Humidity 64%
Rainfall 0.00 in
Snow Depth Not available.
6:33 AM 5:25 PM
Waxing Crescent, 21% visible
METAR K8A0 121615Z AUTO 22004KT 10SM CLR 10/02 A3012 RMK AO2
Pressure 30.12 in
Visibility 10.0 miles
Clouds Clear
Windchill 44 °F
Dew Point 33 °F
Humidity 64%
Rainfall 0.00 in
Snow Depth Not available.
6:33 AM 5:25 PM
Waxing Crescent, 21% visible
METAR K8A0 121615Z AUTO 22004KT 10SM CLR 10/02 A3012 RMK AO2

10-Day Weather Forecast

Almanac

Astronomy

Feb. 12, 2016 Rise Set
Actual Time
Civil Twilight
Nautical Twilight
Astronomical Twilight
Moon
Length of Visible Light
Length of Day
Tomorrow will be .
, % of the Moon is Illuminated

Today's Extremes

State Highs State Lows

Community

WunderPhotos

Upload Photos

1,892,350 photos uploaded!

WunderBlog® & News

Nearby

Air Quality

  Air Quality AQ Index Pollutant
Not available.

Snow Depth

Station Depth Elevation

Earthquake Activity

City Distance Mag. Time & Date
Minimum magnitude displayed is 2.5.

Coastal Water Temperatures

Place Temperature

Stations

Nearby Weather Stations

Station Location Temp. Windchill Dew Point Humidity Wind Precip. Elev Updated Type
                   

Watches & Warnings

There are currently no watches in effect.